Flag for U.S.A. Weather past 2 weeks in Washington DC, District of Columbia, U.S.A.

Now
36 °F

Partly sunny.


Feels Like: 25 °F
Forecast: 29 / 36 °F
Wind: 17 mph from Northwest

Location: Reagan National Airport

Current Time: Jan 27, 2015 at 4:41:38 PM

Latest Report: Jan 27, 2015 at 3:54 PM


Visibility: 10 mi

Pressure: 29.83 "Hg

Humidity: 56%

Dew point: 21 °F

Location of Washington DCLocation

Historic Weather in Washington DC — Graph

°F

Washington DC temperature yesterday

Maximum temperature yesterday: 45 °F (at 12:52 AM)
Minimum temperature yesterday: 29 °F (at 10:52 PM)
Average temperature yesterday: 36 °F

Past Weeks' High & Low Weather Summary

 TemperatureHumidityPressure
High51 °F (Jan 25, 10:52 AM)88% (Jan 21, 1:52 PM)30.58 "Hg (Jan 21, 1:52 PM)
Low27 °F (Jan 14, 4:52 AM)34% (Jan 19, 4:52 PM)29.46 "Hg (Jan 24, 1:52 PM)
Average38 °F64%30.06 "Hg
* Reported Jan 12 2:52 PM — Jan 27 2:52 PM, Washington DC, Weather by CustomWeather, © 2014

Note: Actual official high and low records may vary slightly from our data, if they occured in-between our weather recording intervals... More about our weather records

Advertising

Washington DC weather history for previous 24 hours

 ConditionsComfort  
Time TempWeatherWind HumidityBarometerVisibility
2:52 PM
Jan 27
36 °FBroken clouds.15 mph59%29.81 "Hg10 mi
1:52 PM36 °FOvercast.17 mph59%29.80 "Hg10 mi
12:52 PM35 °FPartly sunny.16 mph61%29.81 "Hg10 mi
11:52 AM34 °FCloudy.18 mph61%29.82 "Hg10 mi
10:52 AM33 °FMore clouds than sun.12 mph63%29.83 "Hg10 mi
9:52 AM32 °FOvercast.12 mph64%29.83 "Hg10 mi
8:52 AM32 °FOvercast.13 mph64%29.82 "Hg10 mi
7:52 AM32 °FLight snow. More clouds than sun.12 mph69%29.81 "Hg8 mi
6:52 AM31 °FOvercast.14 mph69%29.79 "Hg9 mi
5:52 AM31 °FLight snow. Overcast.15 mph69%29.77 "Hg9 mi
4:52 AM32 °FLight snow. Overcast.12 mph69%29.75 "Hg7 mi
3:52 AM31 °FLight snow. Mostly cloudy.13 mph73%29.75 "Hg7 mi
2:52 AM30 °FLight snow. Overcast.15 mph79%29.75 "Hg5 mi
1:52 AM30 °FLight snow. Mostly cloudy.17 mph75%29.75 "Hg4 mi
1:02 AM30 °FLight snow. Mostly cloudy.16 mph75%29.76 "Hg4 mi
12:52 AM30 °FLight snow. Mostly cloudy.14 mph72%29.76 "Hg5 mi
11:52 PM
Jan 26
30 °FLight snow. Overcast.20 mph75%29.75 "Hg5 mi
10:52 PM29 °FLight snow. Mostly cloudy.15 mph79%29.76 "Hg4 mi
10:04 PM30 °FLight snow. Mostly cloudy.17 mph75%29.77 "Hg3 mi
10:00 PM30 °FLight snow. Mostly cloudy.15 mph75%29.77 "Hg2 mi
8:52 PM32 °FLight snow. Overcast.16 mph79%29.76 "Hg6 mi
7:52 PM33 °FLight snow. Overcast.13 mph78%29.75 "Hg7 mi
6:52 PM33 °FLight snow. Overcast.15 mph78%29.73 "Hg6 mi
5:52 PM34 °FLight snow. Overcast.15 mph79%29.74 "Hg6 mi
4:52 PM35 °FOvercast.14 mph75%29.72 "Hg10 mi
Weather by CustomWeather, © 2014

See weather overviewHow to use our weather pages